This demonstration page uses our WeatherBlox Daily Observations layout. Learn more.

Left ArrowRight Arrow

Hourly Observations for April 17, 2021

Temp ( °F °C ) Dew Point ( °F °C ) Humidity (%) Winds ( mph kmh ) Pressure ( in mb ) Visibility ( mi km ) Precip ( " mm )
12:23 am 00:23 Cloudy with Light Rain 42 5.6 38 3.3 85 85 NW 6 9 30.14 1021 10 16.0934 0.001 0.001
12:54 am 00:54 Cloudy with Light Rain 42 5.6 38 3.3 85 85 WNW 6 9 30.13 1020 8 12.87472 0.01 0.254
1:54 am 01:54 Cloudy with Light Rain 42 5.6 39 3.9 89 89 NW 6 9 30.13 1020 7 11.26538 0.02 0.508
2:04 am 02:04 Cloudy with Light Rain 42 5.6 39 3.9 89 89 NW 6 9 30.14 1021 8 12.87472 0.001 0.001
2:24 am 02:24 Cloudy with Light Rain 42 5.6 39 3.9 89 89 WNW 6 9 30.13 1020 7 11.26538 0.001 0.001
2:37 am 02:37 Cloudy with Light Rain 42 5.6 39 3.9 89 89 WNW 7 11 30.13 1020 8 12.87472 0.001 0.001
2:45 am 02:45 Cloudy with Light Rain 42 5.6 39 3.9 89 89 NW 6 9 30.13 1020 8 12.87472 0.001 0.001
2:54 am 02:54 Cloudy with Light Rain 42 5.6 39 3.9 89 89 NW 6 9 30.11 1020 8 12.87472 0.01 0.254
3:54 am 03:54 Cloudy with Light Rain 43 6.1 39 3.9 86 86 NNW 7 11 30.11 1020 9 14.48406 0.01 0.254
4:31 am 04:31 Cloudy with Light Rain 43 6.1 39 3.9 86 86 NNW 9 15 30.12 1020 8 12.87472 0.01 0.254
4:54 am 04:54 Cloudy with Light Rain 43 6.1 39 3.9 86 86 N 10 17 30.11 1020 5 8.0467 0.03 0.762
5:54 am 05:54 Cloudy with Light Rain 43 6.1 39 3.9 86 86 NNW 12 19 30.11 1020 10 16.0934 0.01 0.254
6:54 am 06:54 Cloudy 43 6.1 38 3.3 82 82 NNW 10 17 30.11 1020 10 16.0934 0.001 0.001
7:54 am 07:54 Cloudy 43 6.1 38 3.3 82 82 NNW 14 22 30.13 1020 10 16.0934 0 0
8:54 am 08:54 Cloudy 44 6.7 38 3.3 79 79 NNW 13 20 30.14 1021 10 16.0934 0 0
9:54 am 09:54 Cloudy 44 6.7 38 3.3 79 79 NNW 8 13 30.15 1021 10 16.0934 0 0
10:54 am 10:54 Cloudy 47 8.3 38 3.3 71 71 NNW 16 26 30.16 1021 10 16.0934 0 0
11:54 am 11:54 Cloudy 49 9.4 38 3.3 66 66 NNW 16 26 30.16 1021 10 16.0934 0 0
12:54 pm 12:54 Cloudy 50 10 39 3.9 66 66 N 15 24 30.15 1021 10 16.0934 0 0
1:35 pm 13:35 Cloudy 52 11.1 38 3.3 59 59 NNW 14 22 30.15 1021 10 16.0934 0 0
1:54 pm 13:54 Mostly Cloudy 52 11.1 38 3.3 59 59 NNW 15 24 30.14 1021 10 16.0934 0 0
2:54 pm 14:54 Mostly Cloudy 52 11.1 37 2.8 57 57 NW 14 22 30.14 1021 10 16.0934 0 0
3:54 pm 15:54 Cloudy 53 11.7 36 2.2 52 52 NW 12 19 30.13 1020 10 16.0934 0 0
4:54 pm 16:54 Cloudy 53 11.7 35 1.7 51 51 NNW 10 17 30.12 1020 10 16.0934 0 0
5:54 pm 17:54 Cloudy 53 11.7 36 2.2 52 52 NW 12 19 30.12 1020 10 16.0934 0 0
6:54 pm 18:54 Mostly Cloudy 52 11.1 36 2.2 55 55 NW 15 24 30.12 1020 10 16.0934 0 0
7:54 pm 19:54 Mostly Sunny 50 10 35 1.7 57 57 NW 12 19 30.11 1020 10 16.0934 0 0
8:54 pm 20:54 Clear 46 7.8 34 1.1 63 63 WNW 7 11 30.13 1020 10 16.0934 0 0
9:54 pm 21:54 Cloudy 46 7.8 35 1.7 66 66 NNW 6 9 30.13 1020 10 16.0934 0 0
10:54 pm 22:54 Mostly Cloudy 43 6.1 34 1.1 71 71 Calm 30.13 1020 10 16.0934 0 0
11:54 pm 23:54 Cloudy 44 6.7 35 1.7 71 71 Calm 30.13 1020 10 16.0934 0 0

Powered by AerisWeather